Meteo pe oră la Alipur

Astăzi, 23 Ianuarie, Sâmbătă

Timp Temperatura Precipitaţii Vânt Presiune Umiditate
00:00 +16°C° 0 mm 3 m/s 740 mmHg 39%
01:00 +16°C° 0 mm 3 m/s 740 mmHg 39%
02:00 +16°C° 0 mm 3 m/s 740 mmHg 39%
03:00 +14°C° 0 mm 3 m/s 739 mmHg 40%
04:00 +14°C° 0 mm 3 m/s 739 mmHg 40%
05:00 +13°C° 0 mm 3 m/s 739 mmHg 40%
06:00 +14°C° 0 mm 3 m/s 739 mmHg 40%
07:00 +14°C° 0 mm 4 m/s 739 mmHg 40%
08:00 +14°C° 0 mm 4 m/s 740 mmHg 39%
09:00 +17°C° 0 mm 4 m/s 740 mmHg 36%
10:00 +19°C° 0 mm 4 m/s 740 mmHg 34%
11:00 +21°C° 0 mm 5 m/s 740 mmHg 31%
12:00 +22°C° 0 mm 5 m/s 739 mmHg 31%
13:00 +23°C° 0 mm 5 m/s 739 mmHg 30%
14:00 +25°C° 0 mm 5 m/s 738 mmHg 30%
15:00 +23°C° 0 mm 5 m/s 738 mmHg 33%
16:00 +22°C° 0 mm 4 m/s 737 mmHg 37%
17:00 +22°C° 0 mm 4 m/s 737 mmHg 40%
18:00 +21°C° 0 mm 4 m/s 737 mmHg 42%
19:00 +20°C° 0 mm 4 m/s 738 mmHg 43%
20:00 +19°C° 0 mm 3 m/s 739 mmHg 44%
21:00 +18°C° 0 mm 3 m/s 739 mmHg 45%
22:00 +18°C° 0 mm 3 m/s 739 mmHg 47%
23:00 +17°C° 0 mm 2 m/s 739 mmHg 48%

Mâine, 24 Ianuarie, Duminică

Timp Temperatura Precipitaţii Vânt Presiune Umiditate
00:00 +17°C° 0 mm 2 m/s 739 mmHg 50%
01:00 +16°C° 0 mm 1 m/s 739 mmHg 52%
02:00 +15°C° 0 mm 1 m/s 739 mmHg 54%
03:00 +15°C° 0 mm 1 m/s 739 mmHg 56%
04:00 +14°C° 0 mm 1 m/s 739 mmHg 57%
05:00 +14°C° 0 mm 1 m/s 739 mmHg 58%
06:00 +14°C° 0 mm 1 m/s 740 mmHg 58%
07:00 +14°C° 0 mm 1 m/s 740 mmHg 57%
08:00 +15°C° 0 mm 1 m/s 741 mmHg 57%
09:00 +18°C° 0 mm 1 m/s 741 mmHg 52%
10:00 +20°C° 0 mm 1 m/s 742 mmHg 46%
11:00 +22°C° 0 mm 1 m/s 742 mmHg 41%
12:00 +22°C° 0 mm 1 m/s 742 mmHg 39%
13:00 +23°C° 0 mm 1 m/s 741 mmHg 36%
14:00 +24°C° 0 mm 1 m/s 741 mmHg 34%
15:00 +23°C° 0 mm 2 m/s 741 mmHg 37%
16:00 +21°C° 0 mm 2 m/s 740 mmHg 39%
17:00 +21°C° 0 mm 2 m/s 740 mmHg 42%
18:00 +19°C° 0 mm 3 m/s 741 mmHg 41%
19:00 +18°C° 0 mm 3 m/s 741 mmHg 41%
20:00 +17°C° 0 mm 3 m/s 742 mmHg 41%
21:00 +16°C° 0 mm 3 m/s 742 mmHg 40%
22:00 +14°C° 0 mm 3 m/s 742 mmHg 40%
23:00 +15°C° 0 mm 2 m/s 742 mmHg 39%

Poimâine, 25 Ianuarie, Luni

Timp Temperatura Precipitaţii Vânt Presiune Umiditate
00:00 +14°C° 0 mm 2 m/s 742 mmHg 40%
01:00 +14°C° 0 mm 2 m/s 742 mmHg 41%
02:00 +13°C° 0 mm 2 m/s 742 mmHg 41%
03:00 +13°C° 0 mm 2 m/s 741 mmHg 42%
04:00 +13°C° 0 mm 2 m/s 741 mmHg 43%
05:00 +12°C° 0 mm 2 m/s 741 mmHg 44%
06:00 +12°C° 0 mm 2 m/s 741 mmHg 45%
07:00 +13°C° 0 mm 2 m/s 742 mmHg 46%
08:00 +13°C° 0 mm 2 m/s 743 mmHg 46%
09:00 +15°C° 0 mm 2 m/s 743 mmHg 43%
10:00 +18°C° 0 mm 2 m/s 743 mmHg 39%
11:00 +20°C° 0 mm 2 m/s 743 mmHg 35%
12:00 +21°C° 0 mm 2 m/s 743 mmHg 34%
13:00 +23°C° 0 mm 2 m/s 742 mmHg 33%
14:00 +24°C° 0 mm 2 m/s 742 mmHg 33%
15:00 +23°C° 0 mm 2 m/s 741 mmHg 35%
16:00 +21°C° 0 mm 2 m/s 741 mmHg 37%
17:00 +20°C° 0 mm 2 m/s 741 mmHg 40%
18:00 +19°C° 0 mm 2 m/s 741 mmHg 41%
19:00 +18°C° 0 mm 2 m/s 741 mmHg 42%
20:00 +16°C° 0 mm 2 m/s 742 mmHg 43%
21:00 +16°C° 0 mm 2 m/s 742 mmHg 42%
22:00 +15°C° 0 mm 2 m/s 742 mmHg 40%
23:00 +15°C° 0 mm 2 m/s 742 mmHg 39%

26 Ianuarie, Marţi

Timp Temperatura Precipitaţii Vânt Presiune Umiditate
00:00 +14°C° 0 mm 2 m/s 741 mmHg 40%
01:00 +14°C° 0 mm 2 m/s 741 mmHg 40%
02:00 +13°C° 0 mm 2 m/s 741 mmHg 41%
03:00 +13°C° 0 mm 2 m/s 741 mmHg 40%
04:00 +12°C° 0 mm 2 m/s 740 mmHg 39%
05:00 +12°C° 0 mm 2 m/s 740 mmHg 38%
06:00 +13°C° 0 mm 2 m/s 741 mmHg 37%
07:00 +13°C° 0 mm 1 m/s 741 mmHg 36%
08:00 +13°C° 0 mm 1 m/s 742 mmHg 35%
09:00 +16°C° 0 mm 1 m/s 742 mmHg 33%
10:00 +19°C° 0 mm 1 m/s 742 mmHg 31%
11:00 +21°C° 0 mm 1 m/s 743 mmHg 29%
12:00 +22°C° 0 mm 1 m/s 742 mmHg 29%
13:00 +23°C° 0 mm 1 m/s 742 mmHg 28%
14:00 +24°C° 0 mm 1 m/s 741 mmHg 28%
15:00 +23°C° 0 mm 1 m/s 741 mmHg 30%
16:00 +22°C° 0 mm 1 m/s 740 mmHg 32%
17:00 +21°C° 0 mm 1 m/s 740 mmHg 34%
18:00 +20°C° 0 mm 1 m/s 741 mmHg 35%
19:00 +19°C° 0 mm 1 m/s 741 mmHg 35%
20:00 +17°C° 0 mm 2 m/s 741 mmHg 36%
21:00 +16°C° 0 mm 2 m/s 741 mmHg 36%
22:00 +16°C° 0 mm 2 m/s 741 mmHg 35%
23:00 +15°C° 0 mm 1 m/s 741 mmHg 35%

27 Ianuarie, Miercuri

Timp Temperatura Precipitaţii Vânt Presiune Umiditate
00:00 +14°C° 0 mm 1 m/s 741 mmHg 36%
01:00 +14°C° 0 mm 1 m/s 741 mmHg 36%
02:00 +13°C° 0 mm 1 m/s 740 mmHg 37%
03:00 +13°C° 0 mm 1 m/s 740 mmHg 39%
04:00 +13°C° 0 mm 1 m/s 740 mmHg 41%
05:00 +12°C° 0 mm 1 m/s 740 mmHg 42%
06:00 +13°C° 0 mm 1 m/s 741 mmHg 42%
07:00 +14°C° 0 mm 1 m/s 741 mmHg 42%
08:00 +14°C° 0 mm 1 m/s 742 mmHg 41%
09:00 +16°C° 0 mm 1 m/s 742 mmHg 37%
10:00 +20°C° 0 mm 1 m/s 743 mmHg 32%
11:00 +22°C° 0 mm 1 m/s 743 mmHg 28%
12:00 +23°C° 0 mm 1 m/s 742 mmHg 28%
13:00 +23°C° 0 mm 1 m/s 742 mmHg 28%
14:00 +24°C° 0 mm 1 m/s 741 mmHg 28%
15:00 +23°C° 0 mm 1 m/s 741 mmHg 30%
16:00 +21°C° 0 mm 2 m/s 740 mmHg 32%
17:00 +20°C° 0 mm 2 m/s 740 mmHg 34%
18:00 +19°C° 0 mm 2 m/s 740 mmHg 34%
19:00 +18°C° 0 mm 2 m/s 741 mmHg 34%
20:00 +17°C° 0 mm 2 m/s 741 mmHg 34%
21:00 +17°C° 0 mm 2 m/s 741 mmHg 34%
22:00 +16°C° 0 mm 2 m/s 741 mmHg 34%
23:00 +15°C° 0 mm 2 m/s 742 mmHg 34%

28 Ianuarie, Joi

Timp Temperatura Precipitaţii Vânt Presiune Umiditate
00:00 +15°C° 0 mm 2 m/s 741 mmHg 34%
01:00 +14°C° 0 mm 2 m/s 741 mmHg 35%
02:00 +14°C° 0 mm 1 m/s 741 mmHg 35%
03:00 +13°C° 0 mm 1 m/s 741 mmHg 35%
04:00 +13°C° 0 mm 1 m/s 740 mmHg 36%
05:00 +12°C° 0 mm 1 m/s 740 mmHg 36%
06:00 +13°C° 0 mm 1 m/s 741 mmHg 35%
07:00 +13°C° 0 mm 1 m/s 741 mmHg 35%
08:00 +14°C° 0 mm 1 m/s 742 mmHg 34%
09:00 +16°C° 0 mm 1 m/s 742 mmHg 31%
10:00 +18°C° 0 mm 2 m/s 743 mmHg 29%
11:00 +21°C° 0 mm 2 m/s 743 mmHg 26%
12:00 +23°C° 0 mm 2 m/s 743 mmHg 25%
13:00 +24°C° 0 mm 2 m/s 742 mmHg 23%
14:00 +25°C° 0 mm 3 m/s 742 mmHg 21%
15:00 +23°C° 0 mm 2 m/s 741 mmHg 24%
16:00 +21°C° 0 mm 2 m/s 741 mmHg 26%
17:00 +20°C° 0 mm 2 m/s 741 mmHg 28%
18:00 +19°C° 0 mm 2 m/s 741 mmHg 30%
19:00 +18°C° 0 mm 2 m/s 742 mmHg 31%
20:00 +16°C° 0 mm 2 m/s 742 mmHg 32%
21:00 +16°C° 0 mm 2 m/s 742 mmHg 33%
22:00 +15°C° 0 mm 2 m/s 742 mmHg 33%
23:00 +15°C° 0 mm 2 m/s 743 mmHg 33%
Arată mai mult

Formular de consimțământ

Meteoprog și furnizorii noștri de servicii pot stoca și accesa date personale, precum cookies, identificatori de dispozitiv sau alte tehnologii similare pe dispozitivul dumneavoastră și procesa astfel de date pentru a personaliza conținutul și reclamele, dar și pentru a oferi caracteristici de social media și pentru a analiza traficul.

  • Stocarea și/sau accesarea informațiilor pe dispozitivul dumneavoastră

    Cookies, identificatori de dispozitiv sau alte informații pot fi stocate sau accesate pe dispozitiv în scopurile indicate mai sus.

  • Reclame și conținut personalizat, evaluarea reclamelor și a conținutului, informații despre audiențe și dezvoltarea produselor

    Reclamele și conținutul pot fi personalizate pe baza unui profil. Pot fi adăugate date suplimentare pentru a personaliza mai bine reclamele și conținutul. Performanța reclamelor și conținutului poate fi măsurată. Pot fi obținute informații despre utilizatorii care au văzut reclamele și conținutul. Aceste date pot fi utilizate pentru a dezvolta sau îmbunătăți experiența utilizatorilor, sistemele și software-ul.

Dând clic pe ‘Sunt de acord’, permiteți utilizarea cookie-urilor menționate, a identificatorilor de dispozitiv, balizelor web sau altor tehnologii similare. Setările pot fi modificate din browser-ul dispozitivului dumneavoastră.

În anumite scopuri, interesele legitime pot prima asupra consimțământului. Puteți citi mai multe informații în acest sens în Politica privind Confidențialitatea Datelor și Cookie.